Simultaneous Nadir Overpasses (SNOs) Predictions

Prediction of SNOs between METOP-B and TERRA Satellite Orbit:

Table of predicted SNOs for the next 14.0 days since TLE Epoch: 6/1/2013
Index Date (METOP-B) Time (METOP-B) Lat,Lon (METOP-B) SZA (METOP-B ) Date (TERRA) Time (TERRA) Lat,Lon (TERRA) SZA (TERRA ) Distance(km) Time Diff (sec)
1 06/02/2013 21:24:34 -81.29, 85.67 118.06 06/02/2013 21:24:45 -81.29, 85.78 118.05 1.77 11
2 06/02/2013 22:15:14 81.30,-106.41 62.01 06/02/2013 22:14:11 81.30,-106.45 61.97 0.75 63
3 06/05/2013 16:58:56 -81.30, 152.50 118.35 06/05/2013 16:59:01 -81.30, 152.40 118.35 1.71 5
4 06/05/2013 17:49:37 81.30, -39.97 61.68 06/05/2013 17:48:27 81.31, -39.86 61.66 2.04 70
5 06/08/2013 11:42:41 81.29, 50.74 61.27 06/08/2013 11:43:51 81.28, 50.92 61.33 3.00 70
6 06/0
